Brisbane, Australia

8:16 PM AEST on May 28, 2017 (GMT +1000)
Brisbane International

Weather History for YBBN - March, 2013

Change the Weather History Date:

Tuesday, March 5, 2013

  Actual Average Record
Temperature  
Mean Temperature 75 °F -  
Max Temperature 80 °F 82 °F 87 °F (2009)
Min Temperature 70 °F 66 °F 59 °F (2008)
Cooling Degree Days 10    
Growing Degree Days 25 (Base 50)    
Moisture  
Dew Point 66 °F    
Average Humidity 74    
Maximum Humidity 94    
Minimum Humidity 50    
Precipitation  
Precipitation 0.08 in 0.18 in - ()
Sea Level Pressure  
Sea Level Pressure 29.97 in    
Wind  
Wind Speed 11 mph ()    
Max Wind Speed 18 mph    
Max Gust Speed 30 mph    
Visibility 6.4 miles    
Events Rain    
Averages and records for this station are not official NWS values.
T = Trace of Precipitation, MM = Missing Value Source: Averaged Metar Reports

Daily Weather History Graph

Daily Weather History Graph

Search for Another Location

Airport or City:

Trip Planner

Search our weather history database for the weather conditions in past years. The results will help you decide how hot, cold, wet, or windy it might be!

Date:

Astronomy

Mar. 05, 2013 Rise Set
Actual Time 5:42 AM AEST 6:15 PM AEST
Civil Twilight 5:19 AM AEST 6:38 PM AEST
Nautical Twilight 4:51 AM AEST 7:06 PM AEST
Astronomical Twilight 4:23 AM AEST 7:34 PM AEST
Moon 11:43 PM AEST (3/5) 12:45 PM AEST (3/5)
Length of Visible Light 13h 19m
Length of Day
12h 32m
Waning Gibbous, 48% of the Moon is Illuminated
Mar 5
Waning Gibbous
Mar 12
New
Mar 20
First Quarter
Mar 27
Full
Apr 3
Last Quarter

Hourly Weather History & Observations

Time (AEST) Temp. Heat Index Dew Point Humidity Pressure Visibility Wind Dir Wind Speed Gust Speed Precip Events Conditions
12:00 AM 74 °F - 67 °F 74% 29.96 in 12 mi ESE 10.4 mph - -   Partly Cloudy
12:00 AM 75.2 °F - 68.0 °F 78% 29.95 in 6.2 mi ESE 10.4 mph - N/A   Partly Cloudy
12:30 AM 75.2 °F - 66.2 °F 73% 29.95 in 6.2 mi ESE 9.2 mph - N/A   Partly Cloudy
1:00 AM 75 °F - 67 °F 71% 29.94 in - SE 11.5 mph - -  
1:00 AM 75.2 °F - 68.0 °F 78% 29.92 in 6.2 mi SE 11.5 mph - N/A   Mostly Cloudy
1:30 AM 75.2 °F - 66.2 °F 73% 29.92 in 6.2 mi ESE 12.7 mph - N/A   Mostly Cloudy
2:00 AM 73.4 °F - 68.0 °F 83% 29.92 in 6.2 mi SE 10.4 mph - N/A   Scattered Clouds
2:30 AM 73.4 °F - 68.0 °F 83% 29.92 in 6.2 mi ESE 11.5 mph - N/A   Partly Cloudy
3:00 AM 74 °F - 67 °F 73% 29.93 in 12 mi ESE 10.4 mph - -   Partly Cloudy
3:00 AM 73.4 °F - 68.0 °F 83% 29.92 in 6.2 mi ESE 10.4 mph - N/A   Mostly Cloudy
3:30 AM 73.4 °F - 68.0 °F 83% 29.92 in 6.2 mi East 10.4 mph - N/A   Mostly Cloudy
4:00 AM 73 °F - 68 °F 78% 29.94 in - ESE 10.4 mph - -  
4:00 AM 73.4 °F - 68.0 °F 83% 29.92 in 6.2 mi ESE 10.4 mph - N/A   Mostly Cloudy
4:30 AM 71.6 °F - 68.0 °F 88% 29.92 in 6.2 mi SE 12.7 mph - N/A   Mostly Cloudy
5:00 AM 71.6 °F - 68.0 °F 88% 29.92 in 6.2 mi SE 10.4 mph - N/A   Mostly Cloudy
5:30 AM 71.6 °F - 68.0 °F 88% 29.95 in 6.2 mi ESE 9.2 mph - N/A   Mostly Cloudy
5:48 AM 71.6 °F - 68.0 °F 88% 29.95 in 3.1 mi ESE 10.4 mph - N/A   Light Drizzle
6:00 AM 71 °F - 69 °F 90% 29.96 in 7 mi East 11.5 mph - - Rain Light Drizzle
6:00 AM 71.6 °F - 68.0 °F 88% 29.95 in 6.2 mi East 11.5 mph - N/A   Mostly Cloudy
6:11 AM 71.6 °F - 69.8 °F 94% 29.95 in 1.9 mi East 9.2 mph - N/A   Light Drizzle
6:30 AM 71.6 °F - 68.0 °F 88% 29.95 in 6.2 mi ESE 12.7 mph - N/A   Mostly Cloudy
7:00 AM 73.4 °F - 68.0 °F 83% 29.98 in 6.2 mi ESE 11.5 mph - N/A   Mostly Cloudy
7:20 AM 71.6 °F - 68.0 °F 88% 29.98 in 6.2 mi ESE 12.7 mph - N/A Rain Light Rain Showers
7:30 AM 73.4 °F - 68.0 °F 83% 29.98 in 6.2 mi ESE 12.7 mph 24.2 mph N/A   Mostly Cloudy
8:00 AM 71.6 °F - 68.0 °F 88% 30.01 in 5.0 mi East 13.8 mph - N/A   Drizzle
8:30 AM 73.4 °F - 68.0 °F 83% 29.98 in 3.7 mi SE 12.7 mph - N/A   Light Drizzle
9:00 AM 73 °F - 67 °F 75% 30.01 in 4 mi SE 13.8 mph - - Rain Light Drizzle
9:00 AM 73.4 °F - 66.2 °F 78% 30.01 in 3.7 mi SE 13.8 mph - N/A   Mostly Cloudy
9:21 AM 73.4 °F - 66.2 °F 78% 30.01 in 5.6 mi SE 13.8 mph 25.3 mph N/A   Light Drizzle
9:30 AM 71.6 °F - 66.2 °F 83% 30.01 in 6.2 mi SE 15.0 mph - N/A   Light Drizzle
9:49 AM 73.4 °F - 66.2 °F 78% 30.01 in 6.2 mi SE 9.2 mph - N/A   Mostly Cloudy
10:00 AM 76 °F - 66 °F 64% 30.01 in - ESE 10.4 mph - -  
10:00 AM 77.0 °F - 66.2 °F 69% 30.01 in 6.2 mi ESE 10.4 mph - N/A   Mostly Cloudy
10:30 AM 78.8 °F - 66.2 °F 65% 29.98 in 6.2 mi ESE 15.0 mph - N/A   Mostly Cloudy
11:00 AM 78.8 °F - 66.2 °F 65% 29.98 in 6.2 mi East 12.7 mph - N/A   Mostly Cloudy
11:30 AM 78.8 °F - 66.2 °F 65% 29.98 in 6.2 mi ESE 16.1 mph 27.6 mph N/A   Partly Cloudy
12:00 PM 79 °F - 67 °F 58% 29.99 in 16 mi ESE 16.1 mph - -   Partly Cloudy
12:00 PM 78.8 °F - 66.2 °F 65% 29.98 in 6.2 mi ESE 16.1 mph - N/A   Partly Cloudy
12:30 PM 78.8 °F - 64.4 °F 61% 29.98 in 6.2 mi ESE 17.3 mph - N/A   Partly Cloudy
1:00 PM 80 °F - 65 °F 50% 29.97 in - ESE 17.3 mph - -  
1:00 PM 80.6 °F 82.3 °F 64.4 °F 58% 29.95 in 6.2 mi ESE 17.3 mph - N/A   Partly Cloudy
1:30 PM 80.6 °F 82.7 °F 66.2 °F 61% 29.95 in 6.2 mi ESE 16.1 mph - N/A   Scattered Clouds
1:52 PM 77.0 °F - 66.2 °F 69% 29.95 in 6.2 mi ESE 17.3 mph 28.8 mph N/A   Mostly Cloudy
2:00 PM 77.0 °F - 64.4 °F 65% 29.95 in 5.6 mi ESE 18.4 mph 29.9 mph N/A   Mostly Cloudy
2:16 PM 77.0 °F - 66.2 °F 69% 29.95 in 1.9 mi ESE 12.7 mph - N/A Rain Rain Showers
2:30 PM 73.4 °F - 68.0 °F 83% 29.95 in 6.2 mi SE 12.7 mph - N/A   Mostly Cloudy
3:00 PM 74 °F - 66 °F 68% 29.97 in 9 mi ESE 12.7 mph - - Rain Light Rain Showers
3:00 PM 75.2 °F - 66.2 °F 73% 29.95 in 6.2 mi ESE 12.7 mph 24.2 mph N/A   Mostly Cloudy
3:35 PM 75.2 °F - 64.4 °F 69% 29.95 in 6.2 mi ESE 11.5 mph - N/A   Mostly Cloudy
4:00 PM 74 °F - 65 °F 67% 29.96 in - ESE 12.7 mph - -  
4:00 PM 73.4 °F - 66.2 °F 78% 29.95 in 6.2 mi ESE 12.7 mph - N/A   Mostly Cloudy
4:30 PM 73.4 °F - 66.2 °F 78% 29.95 in 6.2 mi SE 6.9 mph - N/A   Mostly Cloudy
5:00 PM 75.2 °F - 64.4 °F 69% 29.95 in 6.2 mi ESE 13.8 mph - N/A   Mostly Cloudy
5:30 PM 75.2 °F - 66.2 °F 73% 29.95 in 6.2 mi ESE 13.8 mph - N/A   Mostly Cloudy
6:00 PM 75 °F - 64 °F 61% 29.98 in 16 mi ESE 13.8 mph - -   Mostly Cloudy
6:00 PM 75.2 °F - 64.4 °F 69% 29.98 in 6.2 mi ESE 13.8 mph - N/A   Mostly Cloudy
6:30 PM 75.2 °F - 64.4 °F 69% 29.98 in 6.2 mi SE 12.7 mph - N/A   Mostly Cloudy
7:00 PM 75 °F - 63 °F 59% 29.99 in - ESE 11.5 mph - -  
7:00 PM 75.2 °F - 62.6 °F 65% 29.98 in 6.2 mi ESE 11.5 mph - N/A   Mostly Cloudy
7:30 PM 75.2 °F - 64.4 °F 69% 29.98 in 6.2 mi SE 10.4 mph - N/A   Mostly Cloudy
8:00 PM 73.4 °F - 66.2 °F 78% 30.01 in 6.2 mi East 13.8 mph - N/A Rain Light Rain Showers
8:30 PM 73.4 °F - 60.8 °F 65% 30.01 in 6.2 mi SE 10.4 mph - N/A   Mostly Cloudy
9:00 PM 73 °F - 64 °F 67% 30.02 in 9 mi SE 10.4 mph - - Rain Light Rain Showers
9:00 PM 73.4 °F - 64.4 °F 73% 30.01 in 5.6 mi SE 10.4 mph - N/A Rain Light Rain Showers
9:30 PM 73.4 °F - 66.2 °F 78% 30.01 in 6.2 mi ESE 5.8 mph - N/A   Mostly Cloudy
10:00 PM 75 °F - 64 °F 61% 30.02 in - ESE 10.4 mph - -  
10:00 PM 75.2 °F - 64.4 °F 69% 30.01 in 6.2 mi ESE 10.4 mph - N/A   Mostly Cloudy
10:30 PM 75.2 °F - 64.4 °F 69% 30.01 in 6.2 mi ESE 12.7 mph - N/A   Mostly Cloudy
11:00 PM 73.4 °F - 64.4 °F 73% 30.01 in 6.2 mi ESE 11.5 mph - N/A   Partly Cloudy
11:30 PM 73.4 °F - 64.4 °F 73% 30.01 in 6.2 mi ESE 11.5 mph 23.0 mph N/A   Partly Cloudy